TimeCDT,TemperatureF,Dew PointF,Humidity,Sea Level PressureIn,VisibilityMPH,Wind Direction,Wind SpeedMPH,Gust SpeedMPH,PrecipitationIn,Events,Conditions,WindDirDegrees,DateUTC
12:15 AM,66.6,62.6,87,30.19,10.0,SSE,3.5,-,N/A,,Clear,150,2013-08-25 05:15:00
12:35 AM,66.4,62.6,88,30.19,10.0,SSE,3.5,-,N/A,,Clear,150,2013-08-25 05:35:00
12:55 AM,66.0,62.6,89,30.19,10.0,SSE,3.5,-,N/A,,Clear,150,2013-08-25 05:55:00
1:15 AM,66.2,62.6,88,30.19,10.0,SSE,3.5,-,N/A,,Clear,160,2013-08-25 06:15:00
1:35 AM,66.2,62.2,87,30.19,10.0,South,4.6,-,N/A,,Clear,180,2013-08-25 06:35:00
1:55 AM,66.4,62.1,86,30.18,10.0,SSE,3.5,-,N/A,,Clear,160,2013-08-25 06:55:00
2:15 AM,66.6,61.3,83,30.19,10.0,South,4.6,-,N/A,,Clear,170,2013-08-25 07:15:00
2:35 AM,67.1,59.9,78,30.19,10.0,South,5.8,-,N/A,,Clear,180,2013-08-25 07:35:00
2:55 AM,67.1,59.0,75,30.19,10.0,South,5.8,-,N/A,,Clear,180,2013-08-25 07:55:00
3:15 AM,67.5,57.9,71,30.18,10.0,South,6.9,-,N/A,,Clear,180,2013-08-25 08:15:00
3:35 AM,67.3,57.7,71,30.18,10.0,South,5.8,-,N/A,,Clear,180,2013-08-25 08:35:00
3:55 AM,66.9,57.9,73,30.18,10.0,South,3.5,-,N/A,,Clear,180,2013-08-25 08:55:00
4:35 AM,66.0,58.5,77,30.19,10.0,South,3.5,-,N/A,,Clear,170,2013-08-25 09:35:00
4:55 AM,66.0,58.5,77,30.20,10.0,South,3.5,-,N/A,,Clear,170,2013-08-25 09:55:00
5:15 AM,65.8,59.0,79,30.19,10.0,South,3.5,-,N/A,,Clear,170,2013-08-25 10:15:00
5:35 AM,65.5,59.2,80,30.20,10.0,South,4.6,-,N/A,,Clear,180,2013-08-25 10:35:00
5:55 AM,64.9,59.2,82,30.19,10.0,South,5.8,-,N/A,,Clear,180,2013-08-25 10:55:00
6:15 AM,65.3,59.5,82,30.20,10.0,SSE,3.5,-,N/A,,Clear,160,2013-08-25 11:15:00
6:35 AM,65.7,60.1,82,30.21,10.0,South,4.6,-,N/A,,Clear,190,2013-08-25 11:35:00
6:55 AM,66.2,60.8,83,30.21,10.0,South,3.5,-,N/A,,Clear,190,2013-08-25 11:55:00
7:15 AM,67.6,61.5,81,30.21,10.0,South,3.5,-,N/A,,Clear,190,2013-08-25 12:15:00
7:35 AM,69.8,62.6,78,30.21,10.0,SSW,5.8,-,N/A,,Clear,200,2013-08-25 12:35:00
7:55 AM,71.6,63.7,76,30.21,10.0,South,5.8,-,N/A,,Clear,190,2013-08-25 12:55:00
8:15 AM,73.4,64.8,74,30.21,10.0,SSW,9.2,-,N/A,,Clear,210,2013-08-25 13:15:00
8:35 AM,74.5,65.1,72,30.21,10.0,SSW,10.4,-,N/A,,Clear,210,2013-08-25 13:35:00
8:55 AM,75.7,66.0,72,30.21,10.0,SW,9.2,-,N/A,,Clear,220,2013-08-25 13:55:00
9:15 AM,77.0,66.6,70,30.21,10.0,SW,12.7,17.3,N/A,,Clear,220,2013-08-25 14:15:00
9:35 AM,76.8,66.6,70,30.21,10.0,SW,12.7,-,N/A,,Clear,220,2013-08-25 14:35:00
12:15 PM,84.4,69.3,60,30.16,10.0,SSW,17.3,20.7,N/A,,Clear,210,2013-08-25 17:15:00
12:35 PM,85.1,68.4,57,30.16,10.0,SW,16.1,23.0,N/A,,Clear,220,2013-08-25 17:35:00
12:55 PM,85.3,68.2,56,30.16,10.0,SW,16.1,20.7,N/A,,Clear,220,2013-08-25 17:55:00
1:15 PM,86.0,67.6,54,30.15,10.0,SW,13.8,19.6,N/A,,Clear,220,2013-08-25 18:15:00
1:35 PM,86.0,66.6,52,30.15,10.0,SW,10.4,19.6,N/A,,Clear,230,2013-08-25 18:35:00
1:55 PM,86.5,66.6,51,30.15,10.0,SW,16.1,20.7,N/A,,Clear,220,2013-08-25 18:55:00
2:15 PM,86.9,68.4,54,30.14,10.0,SSW,15.0,18.4,N/A,,Clear,200,2013-08-25 19:15:00
2:35 PM,86.7,68.5,55,30.13,10.0,SSW,13.8,-,N/A,,Clear,210,2013-08-25 19:35:00
2:55 PM,86.4,68.5,55,30.13,10.0,SSW,15.0,-,N/A,,Clear,200,2013-08-25 19:55:00
3:15 PM,86.7,68.7,55,30.13,10.0,SSW,15.0,18.4,N/A,,Clear,210,2013-08-25 20:15:00
3:35 PM,86.5,67.5,53,30.11,10.0,SSW,13.8,23.0,N/A,,Clear,210,2013-08-25 20:35:00
3:55 PM,86.5,67.3,52,30.11,10.0,SSW,13.8,-,N/A,,Clear,210,2013-08-25 20:55:00
4:15 PM,86.5,66.6,51,30.10,10.0,SW,16.1,21.9,N/A,,Clear,220,2013-08-25 21:15:00
4:35 PM,86.5,66.2,51,30.10,10.0,SSW,15.0,21.9,N/A,,Clear,210,2013-08-25 21:35:00
4:55 PM,86.2,66.4,51,30.10,10.0,SSW,13.8,19.6,N/A,,Clear,210,2013-08-25 21:55:00
5:15 PM,86.0,66.6,52,30.10,10.0,SSW,9.2,-,N/A,,Clear,210,2013-08-25 22:15:00
5:55 PM,84.6,65.3,52,30.10,10.0,SW,10.4,18.4,N/A,,Clear,220,2013-08-25 22:55:00
6:15 PM,83.8,64.8,52,30.10,10.0,SW,11.5,-,N/A,,Clear,220,2013-08-25 23:15:00
6:35 PM,82.6,66.2,58,30.10,10.0,SSW,5.8,-,N/A,,Clear,210,2013-08-25 23:35:00
6:55 PM,81.3,68.0,64,30.10,10.0,SSW,5.8,-,N/A,,Clear,210,2013-08-25 23:55:00
7:15 PM,80.2,67.1,64,30.10,10.0,SSW,5.8,-,N/A,,Clear,200,2013-08-26 00:15:00
7:35 PM,79.0,66.7,66,30.11,10.0,SSW,8.1,-,N/A,,Clear,210,2013-08-26 00:35:00
7:55 PM,78.3,66.4,67,30.10,10.0,SSW,6.9,-,N/A,,Clear,210,2013-08-26 00:55:00
8:15 PM,77.0,66.2,69,30.11,10.0,SW,4.6,-,N/A,,Clear,220,2013-08-26 01:15:00
8:35 PM,76.1,65.7,70,30.11,10.0,SSW,4.6,-,N/A,,Clear,210,2013-08-26 01:35:00
8:55 PM,75.9,65.5,70,30.12,10.0,SW,6.9,-,N/A,,Clear,220,2013-08-26 01:55:00
9:15 PM,75.2,65.3,71,30.12,10.0,SSW,5.8,-,N/A,,Clear,210,2013-08-26 02:15:00
9:35 PM,74.3,65.3,73,30.12,10.0,SSW,4.6,-,N/A,,Clear,210,2013-08-26 02:35:00
9:55 PM,74.5,65.8,74,30.12,10.0,SSW,5.8,-,N/A,,Clear,200,2013-08-26 02:55:00
10:15 PM,73.9,66.4,77,30.13,10.0,SSW,6.9,-,N/A,,Clear,210,2013-08-26 03:15:00
10:35 PM,74.3,66.7,77,30.13,10.0,SSW,5.8,-,N/A,,Clear,210,2013-08-26 03:35:00
10:55 PM,74.3,66.9,78,30.13,10.0,SSW,6.9,-,N/A,,Clear,210,2013-08-26 03:55:00
11:15 PM,74.5,66.9,77,30.13,10.0,SSW,6.9,-,N/A,,Clear,210,2013-08-26 04:15:00
11:35 PM,74.3,67.1,78,30.12,10.0,SSW,5.8,-,N/A,,Clear,210,2013-08-26 04:35:00
11:55 PM,73.9,67.1,79,30.11,10.0,SSW,8.1,-,N/A,,Clear,210,2013-08-26 04:55:00